[[{"header":{"parameterUnit":"m.s-1","parameterCategory":1,"la1":30.2991,"la2":30.254,"lo1":-89.0895,"lo2":-89.0444,"dy":0.0017,"dx":0.0017,"nx":28,"ny":28,"refTime":"2025-03-24T09:00:00:Z","depth":0,"parameterNumber":2,"parameterNumberName":"U-component_of_WINDS"},"data":[0,0,0,0,0,0,0,0,0,0,0,0,0,0,0,0,0,0,0,0,0,0,0,0,0,0,0,0,0,0,0,0,0,0,0,0,0,0,0,0,0,0,0,0,0,0,0,0,0,0,0,0,0,0,0,0,0,0,1.8977,1.8979,0,1.9124,1.9125,1.9127,1.9128,1.9126,1.9124,1.9122,1.9278,1.9284,1.9289,0,0,0,0,0,0,0,0,0,0,0,0,0,1.8703,1.8708,1.8977,1.8979,1.8981,1.9123,1.9125,1.9128,1.9128,1.9126,1.9123,1.9121,1.9276,1.9283,1.929,0,0,0,0,0,0,0,0,0,0,0,0,0,1.8833,1.8709,1.8977,1.8998,1.9001,1.9123,1.9126,1.9128,1.9128,1.9126,1.9123,1.912,1.9273,1.9282,1.9291,1.9403,0,0,1.9318,1.9322,0,0,0,0,0,0,0,0,1.8826,1.8843,1.8993,1.8997,1.9001,1.9104,1.9086,1.922,1.9129,1.908,1.9122,1.9119,1.9223,1.9236,1.927,1.941,1.9417,1.9319,1.9324,1.9328,1.933,0,0,0,0,0,0,0,1.8817,1.8837,1.9035,1.8995,1.9,1.9002,1.9017,1.9111,1.9166,1.9084,1.9085,1.9102,1.9224,1.9261,1.9273,1.9419,1.9319,1.9326,1.9332,1.9335,1.966,1.9663,0,0,0,0,0,0,1.8803,1.8829,1.9031,1.904,1.8904,1.9009,1.9026,1.9074,1.9165,1.9176,1.9104,1.9101,1.9247,1.9263,1.9279,1.9417,1.9328,1.9336,1.9341,1.9657,1.9661,1.9664,0,0,0,0,0,0,1.8797,1.882,1.9025,1.8935,1.8961,1.9017,1.9071,1.9079,1.9115,1.918,1.919,1.9131,1.9246,1.9266,1.9372,1.9422,1.934,1.9348,1.9653,1.9658,1.9663,1.9692,0,0,0,0,0,0,1.8789,1.8818,1.886,1.8935,1.8965,1.9114,1.9074,1.9083,1.913,1.9127,1.9208,1.9219,1.9245,1.9359,1.9381,1.9433,1.9355,1.9649,1.9655,1.9661,1.9687,1.9698,1.9707,0,0,0,0,0,1.8779,1.8864,1.8862,1.8887,1.9019,1.9117,1.9134,1.9161,1.9134,1.9177,1.9219,1.9216,1.9412,1.9369,1.9394,1.945,1.9646,1.9653,1.966,1.9683,1.9696,1.9706,0,0,0,0,0,0,1.8795,1.8874,1.8873,1.8985,1.9044,1.9116,1.9172,1.9174,1.9243,1.9238,1.9271,1.9289,1.9394,1.9433,1.9383,1.9563,1.9526,1.9539,1.9534,1.9547,1.9557,1.9546,1.9363,0,0,0,0,0,1.8811,1.8882,1.8948,1.904,1.907,1.9116,1.9159,1.9175,1.9238,1.9264,1.9313,1.9376,1.9452,1.9502,1.9575,1.9692,1.9711,1.9743,1.9753,1.976,1.9771,1.9837,1.9853,1.9689,1.9689,1.9688,0,0,1.8846,1.8898,1.8941,1.9045,1.9092,1.9167,1.9137,1.9217,1.9273,1.9277,1.9379,1.9417,1.949,1.9602,1.9654,1.9637,1.9821,1.977,1.9775,1.9783,1.9847,1.9862,1.9876,1.9694,1.9693,1.9692,0,0,1.8947,1.8993,1.9075,1.9123,1.9195,1.9225,1.9244,1.9317,1.9342,1.9445,1.9449,1.9517,1.9647,1.9699,1.9742,1.9863,1.9864,1.9887,1.9938,2.0002,2.0015,2.0027,2.0071,2.0086,1.9897,1.9897,1.9897,0,1.8982,1.9093,1.9118,1.9198,1.9244,1.9248,1.9332,1.9378,1.9471,1.9504,1.9483,1.9646,1.9696,1.982,1.985,1.9884,1.9909,1.9878,2.0011,2.0023,2.0034,2.0077,2.0093,1.99,1.9899,1.9899,1.9899,0,1.9133,1.921,1.9267,1.9355,1.9408,1.9489,1.9528,1.9579,1.959,1.9622,1.9728,1.9787,1.9873,1.9903,1.9915,2.003,2.0018,2.0003,1.9967,2.0052,2.0092,2.0109,1.9903,1.9902,1.9901,1.9901,0,0,1.925,1.9349,1.937,1.941,1.9489,1.955,1.9633,1.9714,1.9758,1.9822,1.9893,2.0003,1.999,2.0039,2.0058,2.0113,2.0207,2.0093,2.0095,2.0113,2.0338,2.0349,2.0368,2.0207,2.021,2.0213,2.0333,0,1.9361,1.9505,1.953,1.9658,1.973,1.9735,1.9807,1.9864,1.9897,1.9965,2.0002,2.0079,2.0056,2.0086,2.0141,2.0184,2.0253,2.0175,2.0276,2.0279,2.0258,2.0389,2.04,2.0511,2.0349,2.0351,2.0353,0,1.951,1.9575,1.971,1.9779,1.981,1.9875,1.9952,2.0016,2.0082,2.0102,2.0156,2.0168,2.0256,2.0214,2.0337,2.0283,2.0326,2.0353,2.0358,2.037,2.0322,2.0405,2.0546,2.0563,2.0378,2.0376,2.0375,0,1.9583,1.9705,1.9801,1.9835,1.9918,1.9964,2.0001,2.0063,2.0111,2.018,2.0211,2.0289,2.0333,2.0394,2.0427,2.0393,2.0548,2.0509,2.0569,2.0568,2.0602,2.06,2.0753,2.0628,2.0627,2.0627,2.0627,0,1.9705,1.9787,1.9835,1.9894,1.9987,2.0015,2.0107,2.0144,2.0199,2.0267,2.0277,2.0341,2.038,2.045,2.0477,2.0575,2.0594,2.0615,2.0621,2.0614,2.0612,2.0644,2.0637,2.0631,2.063,2.063,2.0629,0,1.9803,1.9838,1.9943,2.0013,2.0032,2.0098,2.0158,2.0217,2.0249,2.0335,2.0357,2.0409,2.0492,2.053,2.0634,2.0652,2.0764,2.0764,2.0741,2.0744,2.0802,2.0796,2.0982,2.1009,2.0864,2.0865,2.0866,0,1.9879,1.9942,2.0018,2.0063,2.01,2.0173,2.0222,2.0252,2.0302,2.0382,2.0432,2.0514,2.0583,2.0716,2.0764,2.0843,2.0846,2.0906,2.0859,2.085,2.0849,2.0845,2.0852,2.0915,2.0917,2.0918,2.0919,0,2.0011,2.0025,2.0093,2.0167,2.0224,2.0285,2.0345,2.0382,2.0422,2.0478,2.0562,2.0615,2.0719,2.0802,2.0885,2.0925,2.093,2.0933,2.0951,2.0946,2.093,2.0941,2.0766,2.0929,2.0928,2.0927,2.0927,2.0926,2.0101,2.0157,2.0219,2.0295,2.0343,2.0398,2.0457,2.0495,2.0565,2.0652,2.0666,2.0755,2.0821,2.0931,2.0975,2.1047,2.1033,2.106,2.1066,2.1073,2.1077,2.0917,2.1062,2.1062,2.1062,2.1061,2.1061,0,2.0234,2.0274,2.0343,2.0425,2.0485,2.0481,2.0547,2.0599,2.0677,2.0736,2.0802,2.0899,2.098,2.1033,2.1115,2.1163,2.1167,2.1184,2.1181,2.1191,2.1084,2.106,2.1179,2.1179,2.1179,2.1179,2.1179,2.1179,2.0311,2.0406,2.0428,2.0547,2.0587,2.0673,2.0712,2.0763,2.0811,2.0918,2.0984,2.1017,2.1075,2.1161,2.1236,2.125,2.128,2.1297,2.1311,2.121,2.1198,2.1186,2.1164,2.1303,2.1303,2.1412,2.1413,2.1414]},{"header":{"parameterUnit":"m.s-1","parameterCategory":1,"la1":30.2991,"la2":30.254,"lo1":-89.0895,"lo2":-89.0444,"dy":0.0017,"dx":0.0017,"nx":28,"ny":28,"refTime":"2025-03-24T09:00:00:Z","depth":0,"parameterNumber":3,"parameterNumberName":"V-component_of_WINDS"},"data":[0,0,0,0,0,0,0,0,0,0,0,0,0,0,0,0,0,0,0,0,0,0,0,0,0,0,0,0,0,0,0,0,0,0,0,0,0,0,0,0,0,0,0,0,0,0,0,0,0,0,0,0,0,0,0,0,0,0,-0.2215,-0.2215,0,-0.221,-0.221,-0.221,-0.2241,-0.2242,-0.2242,-0.2243,-0.2237,-0.2236,-0.2235,0,0,0,0,0,0,0,0,0,0,0,0,0,-0.225,-0.2249,-0.2215,-0.2215,-0.2215,-0.221,-0.221,-0.221,-0.2241,-0.2242,-0.2243,-0.2244,-0.2237,-0.2236,-0.2235,0,0,0,0,0,0,0,0,0,0,0,0,0,-0.2239,-0.2249,-0.2215,-0.223,-0.2231,-0.221,-0.221,-0.221,-0.224,-0.2242,-0.2243,-0.2244,-0.2237,-0.2236,-0.2234,-0.2199,0,0,-0.223,-0.2229,0,0,0,0,0,0,0,0,-0.2239,-0.2237,-0.2228,-0.2229,-0.223,-0.2227,-0.222,-0.2206,-0.224,-0.2237,-0.2243,-0.2245,-0.2232,-0.2231,-0.2228,-0.2199,-0.2198,-0.223,-0.2229,-0.2228,-0.2228,0,0,0,0,0,0,0,-0.224,-0.2238,-0.2213,-0.2227,-0.2229,-0.2236,-0.2236,-0.2217,-0.2227,-0.2237,-0.2239,-0.2238,-0.2233,-0.2229,-0.2228,-0.2198,-0.223,-0.2228,-0.2228,-0.2227,-0.2139,-0.2138,0,0,0,0,0,0,-0.2239,-0.2238,-0.2213,-0.2213,-0.2238,-0.2234,-0.2234,-0.2227,-0.2227,-0.2229,-0.2237,-0.224,-0.2231,-0.2229,-0.2227,-0.2185,-0.2228,-0.2227,-0.2226,-0.214,-0.2139,-0.2137,0,0,0,0,0,0,-0.224,-0.2236,-0.2213,-0.2226,-0.2224,-0.2232,-0.2224,-0.2226,-0.2222,-0.2228,-0.2229,-0.2231,-0.2232,-0.223,-0.2206,-0.2185,-0.2226,-0.2225,-0.2142,-0.214,-0.2138,-0.2101,0,0,0,0,0,0,-0.224,-0.2237,-0.2223,-0.2226,-0.2223,-0.2192,-0.2223,-0.2225,-0.2219,-0.2223,-0.2222,-0.2223,-0.2233,-0.2208,-0.2204,-0.2184,-0.2224,-0.2144,-0.2141,-0.2139,-0.2104,-0.2098,-0.2092,0,0,0,0,0,-0.2242,-0.2213,-0.2223,-0.2219,-0.2207,-0.2191,-0.2189,-0.2201,-0.2218,-0.2204,-0.2208,-0.2223,-0.2188,-0.2205,-0.2201,-0.218,-0.2145,-0.2142,-0.2139,-0.2106,-0.2099,-0.2093,0,0,0,0,0,0,-0.2208,-0.2214,-0.2224,-0.2196,-0.2193,-0.2196,-0.218,-0.2193,-0.2184,-0.2188,-0.2202,-0.2202,-0.2175,-0.2176,-0.2194,-0.2146,-0.217,-0.2165,-0.2146,-0.2139,-0.2134,-0.2134,-0.2222,0,0,0,0,0,-0.2197,-0.2184,-0.219,-0.2164,-0.2162,-0.2171,-0.2164,-0.2174,-0.2171,-0.2169,-0.2172,-0.2168,-0.2156,-0.2148,-0.2137,-0.2104,-0.2104,-0.2088,-0.2082,-0.2078,-0.2074,-0.2056,-0.2048,-0.2126,-0.2126,-0.2127,0,0,-0.2175,-0.2176,-0.2167,-0.2157,-0.2156,-0.2141,-0.217,-0.2153,-0.2143,-0.2167,-0.2144,-0.2146,-0.2142,-0.2114,-0.2101,-0.2113,-0.2052,-0.2074,-0.207,-0.2068,-0.2052,-0.2044,-0.2037,-0.2124,-0.2125,-0.2125,0,0,-0.2127,-0.2127,-0.2105,-0.2103,-0.2101,-0.2107,-0.2102,-0.2103,-0.2105,-0.2083,-0.2101,-0.2088,-0.2067,-0.2064,-0.206,-0.201,-0.2024,-0.2006,-0.1976,-0.1958,-0.1952,-0.1946,-0.1928,-0.1921,-0.2002,-0.2002,-0.2002,0,-0.2099,-0.2079,-0.2092,-0.2075,-0.2069,-0.2091,-0.2069,-0.2066,-0.206,-0.2056,-0.207,-0.2044,-0.2043,-0.2014,-0.2002,-0.1998,-0.1991,-0.2006,-0.1952,-0.1946,-0.1941,-0.1924,-0.1917,-0.2,-0.2,-0.2,-0.2001,0,-0.2044,-0.203,-0.2012,-0.2006,-0.1999,-0.1979,-0.1989,-0.198,-0.199,-0.1995,-0.1971,-0.1971,-0.1961,-0.1955,-0.1964,-0.1926,-0.1934,-0.1949,-0.1973,-0.1932,-0.1915,-0.1909,-0.1997,-0.1998,-0.1998,-0.1999,0,0,-0.1975,-0.1976,-0.197,-0.1967,-0.1966,-0.1955,-0.1936,-0.1926,-0.1917,-0.1913,-0.1896,-0.1878,-0.1893,-0.1888,-0.1897,-0.1881,-0.1841,-0.1899,-0.1899,-0.1887,-0.1798,-0.1786,-0.1778,-0.185,-0.1849,-0.1848,-0.1798,0,-0.1927,-0.1895,-0.1906,-0.1873,-0.1859,-0.188,-0.1863,-0.186,-0.1863,-0.1852,-0.1856,-0.1843,-0.1863,-0.186,-0.1846,-0.1849,-0.1823,-0.1853,-0.1834,-0.1834,-0.1834,-0.177,-0.1757,-0.171,-0.1792,-0.1791,-0.179,0,-0.1868,-0.186,-0.1826,-0.1826,-0.1821,-0.1806,-0.1797,-0.1786,-0.1783,-0.1787,-0.1781,-0.1793,-0.1774,-0.1799,-0.1772,-0.1791,-0.1785,-0.1785,-0.1784,-0.1782,-0.1809,-0.1766,-0.1696,-0.1688,-0.1781,-0.1781,-0.1782,0,-0.1819,-0.1801,-0.1778,-0.1775,-0.1776,-0.1764,-0.1764,-0.1762,-0.1755,-0.1748,-0.1743,-0.1733,-0.1728,-0.172,-0.1729,-0.1746,-0.17,-0.1726,-0.1702,-0.1701,-0.1691,-0.1691,-0.1618,-0.1687,-0.1687,-0.1688,-0.1688,0,-0.1765,-0.1743,-0.1756,-0.1742,-0.1717,-0.1731,-0.1706,-0.1708,-0.1706,-0.1692,-0.1709,-0.1695,-0.1708,-0.1695,-0.1702,-0.1678,-0.1676,-0.1678,-0.168,-0.1676,-0.1675,-0.1671,-0.1674,-0.1686,-0.1686,-0.1687,-0.1687,0,-0.1707,-0.1715,-0.1691,-0.1693,-0.1693,-0.1675,-0.1677,-0.1663,-0.1668,-0.165,-0.1647,-0.1654,-0.164,-0.1648,-0.1634,-0.1638,-0.1607,-0.1614,-0.1608,-0.1609,-0.1585,-0.1587,-0.1506,-0.1496,-0.1572,-0.1571,-0.1571,0,-0.1671,-0.1655,-0.1655,-0.1647,-0.1646,-0.1632,-0.1625,-0.1637,-0.1629,-0.1624,-0.1611,-0.1599,-0.1589,-0.1565,-0.1569,-0.1558,-0.1564,-0.1536,-0.1562,-0.1559,-0.1563,-0.1563,-0.1561,-0.1531,-0.153,-0.1529,-0.1529,0,-0.1607,-0.1612,-0.1601,-0.1592,-0.1583,-0.1576,-0.1571,-0.1563,-0.1575,-0.1565,-0.1551,-0.1544,-0.1529,-0.1516,-0.1506,-0.1505,-0.1518,-0.1521,-0.1514,-0.151,-0.1507,-0.1507,-0.1593,-0.1522,-0.1523,-0.1523,-0.1524,-0.1524,-0.1559,-0.1545,-0.1543,-0.153,-0.1527,-0.1522,-0.1509,-0.1512,-0.1501,-0.149,-0.1497,-0.148,-0.1477,-0.1466,-0.1463,-0.1449,-0.146,-0.1452,-0.1449,-0.1447,-0.1443,-0.151,-0.1448,-0.1448,-0.1448,-0.1448,-0.1448,0,-0.1495,-0.1494,-0.1483,-0.1475,-0.1465,-0.1478,-0.1473,-0.1463,-0.1448,-0.1444,-0.1435,-0.1418,-0.1405,-0.1408,-0.1396,-0.1385,-0.139,-0.1381,-0.1382,-0.1381,-0.1434,-0.144,-0.1377,-0.1377,-0.1377,-0.1377,-0.1377,-0.1377,-0.146,-0.1437,-0.1441,-0.1417,-0.1416,-0.14,-0.1395,-0.139,-0.1387,-0.1368,-0.1357,-0.1359,-0.1357,-0.1346,-0.1334,-0.1335,-0.133,-0.1318,-0.1321,-0.1371,-0.1378,-0.1384,-0.139,-0.1317,-0.1317,-0.127,-0.1269,-0.1269]}]]